Regional Weather Roundup
Issued by NWS

Home | Current Version | Previous Version | Text Only | Print | Product List | Glossary Off
Versions: 1 2 3 4 5 6 7 8 9 10 11 12 13 14 15 16 17 18 19 20 21 22 23 24 25 26 27 28 29 30 31 32 33 34 35 36 37 38 39 40 41 42 43 44 45 46 47 48 49 50

000
ASUS44 KFWD 041615
RWRTX
NORTH TEXAS HOURLY WEATHER ROUNDUP
NATIONAL WEATHER SERVICE FORT WORTH TX
1000 AM CST SUN DEC 04 2016

NOTE: "FAIR" INDICATES FEW OR NO CLOUDS BELOW 12,000 FEET WITH NO
SIGNIFICANT WEATHER AND/OR OBSTRUCTIONS TO VISIBILITY.

TXZ118-119-041700-
DALLAS/FORT WORTH METROPLEX

CITY           SKY/WX    TMP DP  RH WIND       PRES   REMARKS
DFW AIRPORT    CLOUDY    50  45  83 N12       30.05R
DALLAS LOVE    CLOUDY    50  47  89 N12       30.06R
FTW MEACHAM    CLOUDY    50  45  83 N10G18    30.06R
DAL-EXECUTIVE  CLOUDY    49  47  93 N7        30.05R
FTW-ALLIANCE   CLOUDY    49  44  83 N12       30.06R
FTW-NAS-JRB    CLOUDY    50  46  86 N12       30.07R
FTW-SPINKS     CLOUDY    48  46  93 N12       30.08R
ARLINGTON      CLOUDY    49  46  90 N13       30.06R
GRAND PRAIRIE  CLOUDY    48  46  93 N3        30.07R
ADDISON        CLOUDY    48  48 100 N8        30.07R
LANCASTER      CLOUDY    50  46  87 N12       30.06R
$$

TXZ091>094-102>105-117-120-121-131>134-041700-
NORTH CENTRAL TEXAS

CITY           SKY/WX    TMP DP  RH WIND       PRES   REMARKS
SHRMAN/DENISON CLOUDY    49  49  99 N9        30.08R
GAINESVILLE    CLOUDY    46  43  90 N13       30.10R WCI  40
BOWIE          PTSUNNY   47  45  93 N6        30.08R
BRIDGEPORT     CLOUDY    47  46  96 N10       30.10R
DECATUR        CLOUDY    46  45  98 N7        30.07S
DENTON         CLOUDY    48  45  89 N12       30.07R
MCKINNEY       CLOUDY    48  47  96 N8        30.07R FOG
BONHAM         CLOUDY    46  45  93 N7        30.08R
GREENVILLE     CLOUDY    46  46 100 N7        30.06R
ROCKWALL       CLOUDY    48  47  97 N9        30.07R
TERRELL        CLOUDY    49  45  86 N9        30.06R
WAXAHACHIE     CLOUDY    48  48 100 N10       30.06R
CLEBURNE       CLOUDY    48  48 100 N12       30.08R
GRANBURY       CLOUDY    49  46  88 NW7       30.09R
$$

TXZ083>090-098>101-113>116-127>130-139>142-154-155-041700-
WESTERN NORTH TEXAS

CITY           SKY/WX    TMP DP  RH WIND       PRES   REMARKS
WICHITA FALLS  CLOUDY    47  44  90 N8        30.10R
WF-KICKAPOO    CLOUDY    47  44  88 N7        30.12R
VERNON         MOSUNNY   49  42  77 N12       30.12R
ABILENE        CLOUDY    45  43  93 N14       30.10R WCI  38
ABILENE-DYESS  CLOUDY    45  43  93 N13       30.10R WCI  38
CISCO          CLOUDY    45  45 100 N10       30.07S WCI  39
BRECKENRIDGE   CLOUDY    47  45  91 N6        30.11R
GRAHAM         CLOUDY    47  47 100 N7        30.08R
MINERAL WELLS  CLOUDY    47  43  86 N13       30.07R
STEPHENVILLE   CLOUDY    46  44  90 N12       30.08S
COMANCHE       CLOUDY    46  46 100 N12G17    30.07R
BROWNWOOD      CLOUDY    48  43  81 N13G21    30.09R
COLEMAN        CLOUDY    47  43  87 N14G20    30.08R
$$

TXZ143>147-156>162-174-175-041700-
CENTRAL TEXAS

CITY           SKY/WX    TMP DP  RH WIND       PRES   REMARKS
WACO           CLOUDY    49  47  93 N13       30.07R
WACO-MCGREGOR  CLOUDY    50  47  89 N13       30.06R
HILLSBORO      CLOUDY    49  47  93 N13       30.06R
CORSICANA      LGT RAIN  51  48  89 N12       30.07R
MEXIA          CLOUDY    49  47  92 NW8       30.04R
HEARNE         CLOUDY    50  48  93 N8        30.07R
CAMERON        CLOUDY    50  48  92 N9        30.06R
TEMPLE         CLOUDY    50  47  89 N13       30.06R
KILLEEN        CLOUDY    48  46  93 N12       30.04R
KILLEEN-SKYLRK CLOUDY    49  47  93 N12       30.05R
FORT HOOD      CLOUDY    48  48 100 N17       30.00
GATESVILLE     CLOUDY    48  46  93 N5        30.08R
HAMILTON       CLOUDY    48  48 100 N14       30.07R
LAMPASAS       CLOUDY    50  49  94 N7        30.05R
$$

TXZ095>097-106>112-122>126-135>138-148>153-164>167-041700-
EAST TEXAS

CITY           SKY/WX    TMP DP  RH WIND       PRES   REMARKS
PARIS          CLOUDY    46  43  87 N8        30.07R
SULPHUR SPRNGS CLOUDY    48  48  98 N7        30.07S
MOUNT PLEASANT CLOUDY    48  47  96 N8        30.08R
GILMER         CLOUDY    47  46  95 N5        30.06R
MINEOLA        CLOUDY    48  46  93 N3        30.06R
TYLER          CLOUDY    49  47  93 N7        30.04R
LONGVIEW       CLOUDY    48  47  96 N6        30.04R
MARSHALL       CLOUDY    45  43  93 N3        30.06R
ATHENS         CLOUDY    46  46 100 N8        30.03R
PALESTINE      CLOUDY    49  48  97 N6        30.04R
JACKSONVILLE   CLOUDY    47  47 100 N9        30.05R
HENDERSON      CLOUDY    47  47 100 N5        30.05R FOG
CENTER         CLOUDY    50  48  95 N8        30.02R FOG
NACOGDOCHES    CLOUDY    48  46  93 N9        30.00S
LUFKIN         LGT RAIN  49  48  97 CALM      30.00R
$$

SUPPLEMENTAL OBSERVATIONS (CENTRAL)

CITY           SKY/WX    TMP DP  RH WIND       PRES   REMARKS
DENISON DAM      N/A     48  43  81 N6          N/A
CADDO GRASSLND   N/A     48  45  87 N3          N/A
PAT MAYSE LAKE   N/A     46  45  93 NW6         N/A
GREENVILLE       N/A     48  43  81 N9          N/A
CEDAR HILL       N/A     48  46  93 N5          N/A
ATHENS           N/A     48  43  81 N2G10       N/A
LAKE LIMESTONE   N/A     52  48  87 N9          N/A
MCGREGOR         N/A     50  48  93 N7G15       N/A
TEMPLE           N/A     50  46  87 N2G10       N/A
$$

SUPPLEMENTAL OBSERVATIONS (WEST)

CITY           SKY/WX    TMP DP  RH WIND       PRES   REMARKS
MILLERS CREEK    N/A     46  45  93 N7          N/A
POSSUM KINGDOM   N/A     46  43  87 N8          N/A
LBJ GRASSLAND    N/A     46  41  81 CALM        N/A
GRANBURY         N/A     48  45  87 N10         N/A
COMANCHE         N/A     46  41  81 N12         N/A
HAMBY            N/A     45  41  87 N7G15       N/A
IVIE RESERVOIR   N/A     48  43  81 N9G17       N/A
COLORADO BEND    N/A     48  45  87 NE7         N/A
$$

SUPPLEMENTAL OBSERVATIONS (EAST)

CITY           SKY/WX    TMP DP  RH WIND       PRES   REMARKS
CLARKSVILLE      N/A     48  45  87 VRB3        N/A
TEXARKANA        N/A     46  43  87 N3          N/A
LINDEN           N/A     46  43  87 N2          N/A
CADDO LAKE       N/A     48  46  93 VRB2        N/A
GILMER           N/A     48  43  81 VRB3        N/A
HENDERSON        N/A     46  45  93 N8          N/A
LUFKIN           N/A     48  45  87 MISG        N/A
N SABINE NF      N/A     48  46  93 MISG        N/A
S SABINE NF      N/A     48  46  93 CALM        N/A
$$

SUPPLEMENTAL OBSERVATIONS ARE A COLLECTION OF AUTOMATED INSTRUMENTS
THAT ARE MAINTAINED BY A VARIETY OF FEDERAL AND STATE AGENCIES.
CERTAIN ELEMENTS...SUCH AS HUMIDITY VALUES AND SUSTAINED WIND
SPEEDS...MAY BE APPROXIMATED.




USA.gov is the U.S. government's official web portal to all federal, state and local government web resources and services.